[[{"header":{"parameterUnit":"m.s-1","parameterCategory":1,"la1":30.2991,"la2":30.254,"lo1":-89.0895,"lo2":-89.0444,"dy":0.0017,"dx":0.0017,"nx":28,"ny":28,"refTime":"2024-08-20T21:00:00:Z","depth":0,"parameterNumber":2,"parameterNumberName":"U-component_of_WINDS"},"data":[0,0,0,0,0,0,0,0,0,0,0,0,0,0,0,0,0,0,0,0,0,0,0,0,0,0,0,0,0,0,0,0,0,0,0,0,0,0,0,0,0,0,0,0,0,0,0,0,0,0,0,0,0,0,0,0,0,0,-0.2262,-0.2263,0,-0.2322,-0.2323,-0.2324,-0.2291,-0.2289,-0.2287,-0.2286,-0.2349,-0.2353,-0.2356,0,0,0,0,0,0,0,0,0,0,0,0,0,-0.212,-0.2123,-0.2262,-0.2263,-0.2264,-0.2322,-0.2323,-0.2324,-0.2291,-0.2289,-0.2287,-0.2285,-0.2348,-0.2352,-0.2356,0,0,0,0,0,0,0,0,0,0,0,0,0,-0.2181,-0.2124,-0.2262,-0.2254,-0.2254,-0.2322,-0.2323,-0.2324,-0.2291,-0.2289,-0.2286,-0.2284,-0.2347,-0.2352,-0.2357,-0.2436,0,0,-0.2371,-0.2374,0,0,0,0,0,0,0,0,-0.2178,-0.2187,-0.2255,-0.2255,-0.2255,-0.2296,-0.2296,-0.2362,-0.2292,-0.2277,-0.2286,-0.2283,-0.2334,-0.234,-0.2356,-0.2439,-0.2442,-0.2372,-0.2375,-0.2377,-0.2378,0,0,0,0,0,0,0,-0.2174,-0.2184,-0.2286,-0.2256,-0.2256,-0.2248,-0.2254,-0.2308,-0.2319,-0.2278,-0.2276,-0.2284,-0.2334,-0.2352,-0.2358,-0.2443,-0.2372,-0.2376,-0.2379,-0.2381,-0.2593,-0.2595,0,0,0,0,0,0,-0.217,-0.2181,-0.2284,-0.2288,-0.2209,-0.2253,-0.2259,-0.2286,-0.2318,-0.2321,-0.2286,-0.2282,-0.2345,-0.2352,-0.236,-0.2455,-0.2377,-0.2381,-0.2384,-0.259,-0.2593,-0.2596,0,0,0,0,0,0,-0.2167,-0.2179,-0.2282,-0.2234,-0.2246,-0.2258,-0.2288,-0.2288,-0.2306,-0.2324,-0.2325,-0.2303,-0.2343,-0.2353,-0.2417,-0.2457,-0.2384,-0.2388,-0.2587,-0.2591,-0.2595,-0.2647,0,0,0,0,0,0,-0.2163,-0.2178,-0.2209,-0.2234,-0.2249,-0.2338,-0.229,-0.2291,-0.2315,-0.231,-0.234,-0.2342,-0.2342,-0.241,-0.2422,-0.2462,-0.2392,-0.2584,-0.2589,-0.2594,-0.2641,-0.2652,-0.2661,0,0,0,0,0,-0.2158,-0.2221,-0.221,-0.2223,-0.2287,-0.234,-0.2349,-0.2346,-0.2318,-0.2349,-0.2359,-0.2342,-0.245,-0.2417,-0.243,-0.2473,-0.2581,-0.2587,-0.2593,-0.2637,-0.265,-0.2661,0,0,0,0,0,0,-0.2201,-0.2225,-0.2213,-0.2286,-0.2311,-0.2335,-0.2373,-0.236,-0.2394,-0.2389,-0.2385,-0.2392,-0.2458,-0.2471,-0.2434,-0.2551,-0.2511,-0.252,-0.254,-0.2552,-0.2562,-0.2558,-0.2396,0,0,0,0,0,-0.2219,-0.226,-0.2279,-0.2342,-0.2355,-0.2362,-0.2385,-0.2381,-0.2407,-0.2418,-0.2433,-0.246,-0.25,-0.2526,-0.2564,-0.2642,-0.2648,-0.2678,-0.2687,-0.2695,-0.2704,-0.2746,-0.276,-0.2617,-0.2616,-0.2616,0,0,-0.2257,-0.2275,-0.2301,-0.2351,-0.237,-0.2413,-0.2371,-0.2419,-0.2451,-0.2425,-0.2487,-0.2499,-0.2528,-0.2599,-0.2632,-0.2613,-0.2744,-0.2703,-0.2709,-0.2714,-0.2754,-0.2767,-0.2779,-0.2621,-0.262,-0.2619,0,0,-0.2349,-0.2366,-0.242,-0.244,-0.2468,-0.2472,-0.2485,-0.251,-0.2517,-0.2578,-0.256,-0.2598,-0.2667,-0.2688,-0.2708,-0.2806,-0.2791,-0.2818,-0.287,-0.2911,-0.2922,-0.2932,-0.2968,-0.2981,-0.2826,-0.2826,-0.2826,0,-0.2393,-0.2456,-0.245,-0.2499,-0.2522,-0.2499,-0.2554,-0.2573,-0.2613,-0.2629,-0.2607,-0.2692,-0.271,-0.2787,-0.281,-0.2827,-0.2842,-0.2816,-0.2921,-0.2931,-0.294,-0.2974,-0.2987,-0.2829,-0.2829,-0.2829,-0.2828,0,-0.2509,-0.2554,-0.2594,-0.2632,-0.2659,-0.2711,-0.2713,-0.2741,-0.2733,-0.274,-0.2802,-0.2823,-0.2864,-0.2881,-0.2875,-0.2956,-0.2944,-0.2921,-0.2882,-0.2957,-0.2989,-0.3002,-0.2834,-0.2833,-0.2832,-0.2831,0,0,-0.2632,-0.2665,-0.268,-0.2697,-0.2726,-0.276,-0.2811,-0.285,-0.2874,-0.2902,-0.2945,-0.3002,-0.2981,-0.3004,-0.3,-0.3036,-0.3112,-0.3009,-0.3009,-0.3028,-0.3203,-0.3221,-0.3236,-0.3101,-0.3104,-0.3105,-0.3201,0,-0.2726,-0.2814,-0.2809,-0.2892,-0.2933,-0.2911,-0.2955,-0.2978,-0.2984,-0.302,-0.3027,-0.3069,-0.3038,-0.3051,-0.3085,-0.3096,-0.3147,-0.3088,-0.3142,-0.3144,-0.3137,-0.3253,-0.3272,-0.3362,-0.3213,-0.3216,-0.3217,0,-0.2849,-0.2879,-0.2966,-0.2988,-0.3005,-0.3045,-0.308,-0.3114,-0.3139,-0.3142,-0.3166,-0.3155,-0.3206,-0.3164,-0.3235,-0.3194,-0.3215,-0.3223,-0.3227,-0.3233,-0.3186,-0.3264,-0.339,-0.3404,-0.3236,-0.3235,-0.3233,0,-0.2931,-0.2994,-0.3054,-0.3069,-0.3096,-0.3124,-0.3137,-0.3159,-0.3183,-0.3213,-0.3229,-0.3265,-0.3286,-0.3314,-0.3314,-0.3283,-0.3385,-0.3343,-0.3389,-0.339,-0.3414,-0.3413,-0.3547,-0.3425,-0.3425,-0.3424,-0.3424,0,-0.3038,-0.3092,-0.3091,-0.3128,-0.3188,-0.3181,-0.3241,-0.325,-0.327,-0.3309,-0.3291,-0.3328,-0.3324,-0.3361,-0.3361,-0.3419,-0.3428,-0.3432,-0.3432,-0.3435,-0.3435,-0.345,-0.3444,-0.3428,-0.3427,-0.3426,-0.3426,0,-0.3141,-0.3142,-0.3206,-0.3226,-0.3232,-0.3275,-0.3292,-0.3327,-0.3331,-0.338,-0.3391,-0.3399,-0.3441,-0.3442,-0.3492,-0.3491,-0.3563,-0.3555,-0.3555,-0.3554,-0.36,-0.3596,-0.3751,-0.3771,-0.3635,-0.3636,-0.3637,0,-0.3209,-0.325,-0.3274,-0.3298,-0.3312,-0.3352,-0.3375,-0.337,-0.3395,-0.3426,-0.3458,-0.3498,-0.353,-0.3599,-0.3609,-0.3646,-0.364,-0.3691,-0.3645,-0.3647,-0.3642,-0.364,-0.3644,-0.37,-0.3702,-0.3703,-0.3704,0,-0.3332,-0.333,-0.3365,-0.34,-0.3428,-0.3455,-0.3481,-0.3502,-0.3499,-0.3528,-0.3571,-0.3596,-0.3645,-0.3686,-0.3722,-0.3735,-0.372,-0.3718,-0.3731,-0.3735,-0.3734,-0.3736,-0.358,-0.3715,-0.3714,-0.3713,-0.3713,-0.3712,-0.3421,-0.3456,-0.3478,-0.3517,-0.3535,-0.3558,-0.3592,-0.36,-0.3635,-0.3675,-0.3669,-0.3717,-0.3739,-0.3786,-0.3801,-0.3839,-0.3821,-0.384,-0.3845,-0.385,-0.3855,-0.3726,-0.3845,-0.3845,-0.3844,-0.3844,-0.3844,0,-0.3543,-0.3555,-0.3591,-0.3627,-0.3657,-0.3638,-0.3665,-0.3692,-0.3734,-0.3756,-0.3788,-0.3836,-0.3875,-0.3887,-0.3925,-0.3952,-0.3946,-0.3962,-0.3961,-0.3964,-0.3868,-0.3854,-0.3967,-0.3967,-0.3967,-0.3966,-0.3966,-0.3966,-0.361,-0.3669,-0.367,-0.3737,-0.3749,-0.3795,-0.3812,-0.3833,-0.3851,-0.3906,-0.3938,-0.3945,-0.3963,-0.4001,-0.4036,-0.4038,-0.4054,-0.4073,-0.4073,-0.3983,-0.3971,-0.3959,-0.3946,-0.4076,-0.4076,-0.4166,-0.4167,-0.4167]},{"header":{"parameterUnit":"m.s-1","parameterCategory":1,"la1":30.2991,"la2":30.254,"lo1":-89.0895,"lo2":-89.0444,"dy":0.0017,"dx":0.0017,"nx":28,"ny":28,"refTime":"2024-08-20T21:00:00:Z","depth":0,"parameterNumber":3,"parameterNumberName":"V-component_of_WINDS"},"data":[0,0,0,0,0,0,0,0,0,0,0,0,0,0,0,0,0,0,0,0,0,0,0,0,0,0,0,0,0,0,0,0,0,0,0,0,0,0,0,0,0,0,0,0,0,0,0,0,0,0,0,0,0,0,0,0,0,0,-3.1367,-3.1367,0,-3.1369,-3.1369,-3.1369,-3.1322,-3.1321,-3.132,-3.1319,-3.1319,-3.132,-3.1322,0,0,0,0,0,0,0,0,0,0,0,0,0,-3.1321,-3.1322,-3.1367,-3.1367,-3.1368,-3.1369,-3.1369,-3.1369,-3.1323,-3.1321,-3.1319,-3.1318,-3.1319,-3.132,-3.1322,0,0,0,0,0,0,0,0,0,0,0,0,0,-3.1334,-3.1322,-3.1367,-3.1344,-3.1342,-3.1369,-3.1369,-3.1369,-3.1323,-3.1321,-3.1319,-3.1317,-3.1318,-3.132,-3.1322,-3.1371,0,0,-3.1327,-3.1328,0,0,0,0,0,0,0,0,-3.1333,-3.1336,-3.1348,-3.1346,-3.1344,-3.1344,-3.1353,-3.137,-3.1323,-3.133,-3.1319,-3.1316,-3.1329,-3.133,-3.1334,-3.1371,-3.1371,-3.1328,-3.1329,-3.1329,-3.133,0,0,0,0,0,0,0,-3.1332,-3.1335,-3.1368,-3.1348,-3.1346,-3.1333,-3.1333,-3.1356,-3.134,-3.1329,-3.1326,-3.1327,-3.1327,-3.1332,-3.1334,-3.1371,-3.1327,-3.1329,-3.133,-3.1331,-3.1444,-3.1446,0,0,0,0,0,0,-3.1335,-3.1335,-3.1368,-3.1368,-3.1334,-3.1335,-3.1335,-3.1346,-3.134,-3.1337,-3.1329,-3.1325,-3.133,-3.1332,-3.1334,-3.1388,-3.1329,-3.1331,-3.1332,-3.1442,-3.1444,-3.1446,0,0,0,0,0,0,-3.1334,-3.1338,-3.1368,-3.135,-3.1353,-3.1338,-3.135,-3.1347,-3.1352,-3.1339,-3.1336,-3.1337,-3.1329,-3.1331,-3.1361,-3.1387,-3.1332,-3.1333,-3.144,-3.1443,-3.1445,-3.1498,0,0,0,0,0,0,-3.1333,-3.1338,-3.1357,-3.1351,-3.1354,-3.1396,-3.1352,-3.1348,-3.1355,-3.135,-3.1346,-3.1343,-3.1328,-3.1359,-3.1363,-3.1389,-3.1335,-3.1437,-3.1441,-3.1444,-3.1494,-3.1502,-3.151,0,0,0,0,0,-3.1331,-3.1373,-3.1359,-3.1363,-3.1378,-3.1398,-3.14,-3.1381,-3.1357,-3.1376,-3.1367,-3.1343,-3.1384,-3.1362,-3.1366,-3.1393,-3.1435,-3.144,-3.1444,-3.149,-3.1501,-3.1509,0,0,0,0,0,0,-3.1382,-3.1371,-3.1356,-3.1397,-3.1399,-3.139,-3.1413,-3.1393,-3.1402,-3.1397,-3.1373,-3.1372,-3.1405,-3.1403,-3.1378,-3.1438,-3.1405,-3.1411,-3.1439,-3.1449,-3.1456,-3.1456,-3.1336,0,0,0,0,0,-3.1398,-3.1416,-3.1405,-3.1442,-3.1444,-3.1428,-3.1436,-3.1422,-3.1423,-3.1423,-3.1417,-3.1418,-3.1431,-3.144,-3.1451,-3.1494,-3.149,-3.1514,-3.1522,-3.1528,-3.1533,-3.1552,-3.1561,-3.1461,-3.1461,-3.146,0,0,-3.1432,-3.1428,-3.144,-3.1452,-3.1452,-3.147,-3.1429,-3.1451,-3.1463,-3.1426,-3.1453,-3.1449,-3.1449,-3.1485,-3.15,-3.1483,-3.156,-3.1534,-3.1539,-3.154,-3.1557,-3.1567,-3.1576,-3.1463,-3.1463,-3.1462,0,0,-3.15,-3.1501,-3.153,-3.153,-3.153,-3.1519,-3.1526,-3.152,-3.1516,-3.1543,-3.1515,-3.1529,-3.1552,-3.1552,-3.1556,-3.1622,-3.16,-3.1627,-3.1667,-3.1687,-3.1694,-3.1701,-3.1723,-3.1731,-3.1632,-3.1632,-3.1632,0,-3.1542,-3.1567,-3.1547,-3.1569,-3.1574,-3.1542,-3.157,-3.1571,-3.1575,-3.1579,-3.156,-3.1587,-3.1584,-3.1618,-3.1634,-3.1639,-3.1644,-3.1626,-3.1695,-3.1702,-3.1708,-3.1728,-3.1736,-3.1635,-3.1634,-3.1634,-3.1634,0,-3.1617,-3.1635,-3.1658,-3.1662,-3.167,-3.1695,-3.1677,-3.1687,-3.1672,-3.1662,-3.1689,-3.1685,-3.1694,-3.1701,-3.1686,-3.1732,-3.1721,-3.1699,-3.1665,-3.1721,-3.1739,-3.1747,-3.1639,-3.1638,-3.1637,-3.1636,0,0,-3.1718,-3.1709,-3.1718,-3.1717,-3.1714,-3.1727,-3.175,-3.1759,-3.1767,-3.177,-3.1787,-3.1807,-3.1786,-3.1789,-3.1774,-3.1791,-3.1841,-3.1767,-3.1766,-3.1779,-3.1888,-3.1903,-3.1913,-3.1827,-3.1828,-3.183,-3.1888,0,-3.1783,-3.1822,-3.1803,-3.1843,-3.1858,-3.1827,-3.1846,-3.1846,-3.1837,-3.1848,-3.1839,-3.1852,-3.1825,-3.1826,-3.1842,-3.1832,-3.1862,-3.1828,-3.1841,-3.1842,-3.184,-3.1923,-3.1939,-3.1994,-3.1895,-3.1896,-3.1897,0,-3.1864,-3.187,-3.1911,-3.1903,-3.1908,-3.1926,-3.1931,-3.1942,-3.194,-3.1933,-3.1936,-3.1916,-3.1936,-3.1904,-3.193,-3.1907,-3.1911,-3.1907,-3.1909,-3.1908,-3.1871,-3.1922,-3.2012,-3.2019,-3.1909,-3.1908,-3.1907,0,-3.1931,-3.1949,-3.1975,-3.1977,-3.1968,-3.1981,-3.1978,-3.1974,-3.1979,-3.1984,-3.1986,-3.1993,-3.1996,-3.2001,-3.1983,-3.1962,-3.2011,-3.1978,-3.2004,-3.2004,-3.2014,-3.2014,-3.2104,-3.2021,-3.2021,-3.2021,-3.202,0,-3.2004,-3.203,-3.2005,-3.2021,-3.2048,-3.2026,-3.2054,-3.2047,-3.2044,-3.2057,-3.2031,-3.2044,-3.202,-3.203,-3.2017,-3.2039,-3.2041,-3.2035,-3.203,-3.2036,-3.2036,-3.2037,-3.2032,-3.2023,-3.2022,-3.2022,-3.2021,0,-3.2083,-3.2067,-3.2093,-3.2083,-3.208,-3.2101,-3.2091,-3.2105,-3.2094,-3.2111,-3.2114,-3.2097,-3.2107,-3.209,-3.2099,-3.2089,-3.212,-3.2111,-3.212,-3.2117,-3.2143,-3.214,-3.2235,-3.2245,-3.2158,-3.2159,-3.216,0,-3.213,-3.2149,-3.2139,-3.2146,-3.2144,-3.2156,-3.2161,-3.214,-3.2145,-3.2143,-3.2157,-3.2165,-3.217,-3.2188,-3.2176,-3.2182,-3.2171,-3.2204,-3.2172,-3.2176,-3.2169,-3.2167,-3.2167,-3.221,-3.2211,-3.2212,-3.2213,0,-3.2214,-3.2204,-3.2212,-3.2217,-3.2223,-3.2226,-3.2227,-3.2234,-3.2211,-3.2219,-3.2229,-3.2233,-3.2241,-3.2248,-3.2251,-3.2247,-3.2225,-3.2223,-3.2229,-3.2234,-3.2238,-3.2234,-3.2136,-3.2221,-3.222,-3.2219,-3.2219,-3.2219,-3.2276,-3.2291,-3.2286,-3.2295,-3.2293,-3.2294,-3.2305,-3.2295,-3.2303,-3.2307,-3.2294,-3.2307,-3.2302,-3.2303,-3.2301,-3.231,-3.2295,-3.2304,-3.2306,-3.2308,-3.2311,-3.2238,-3.2311,-3.231,-3.231,-3.231,-3.231,0,-3.2357,-3.2352,-3.236,-3.2361,-3.2368,-3.2348,-3.2347,-3.2353,-3.2365,-3.2362,-3.2367,-3.2377,-3.2384,-3.2372,-3.2377,-3.2386,-3.2376,-3.2388,-3.2386,-3.2384,-3.2326,-3.2319,-3.2395,-3.2395,-3.2395,-3.2395,-3.2395,-3.2395,-3.2399,-3.2422,-3.2411,-3.2432,-3.2426,-3.2438,-3.2439,-3.2439,-3.2436,-3.2449,-3.2454,-3.2446,-3.2439,-3.2442,-3.2447,-3.2443,-3.2445,-3.246,-3.2452,-3.2397,-3.2389,-3.2381,-3.2374,-3.2461,-3.2461,-3.251,-3.2511,-3.2511]}]]